Orbital Elements at Epoch 2459200.5 (2020-Dec-17.0) TDB
Reference: JPL 15 (heliocentric ecliptic J2000)
Element | Value | Uncertainty (1-sigma) | Units |
e | .04697079616152587 | 4.4529e-08 | |
a | 2.753788221456656 | 2.2591e-08 | au |
q | 2.624440596234605 | 1.2316e-07 | au |
i | 4.707231717584382 | 4.7359e-06 | deg |
node | 297.2722757115521 | 6.6938e-05 | deg |
peri | 15.21014796181818 | 8.9726e-05 | deg |
M | 129.1815354318892 | 5.8043e-05 | deg |
tp | 2458601.547784977916 (2019-Apr-28.04778498) | 0.00026996 | TDB |
period | 1669.145645986204 4.57 | 2.054e-05 5.624e-08 | d yr |
n | .2156792014319974 | 2.6541e-09 | deg/d |
Q | 2.883135846678707 | 2.3652e-08 | au |
|
| | Orbit Determination Parameters
Additional Information
|